CW2523 Weather Reports


time (UTC)temp
C
wind
direction
speed
KPH
gust
KPH
rain 1hr
cm
rain 24hr
cm
rain mn
cm
humidity
%
barometer
mb
20260906155552 33 45 4.8 12.9 0.00 0.00 0.00 50 1016.6
20260906155050 33 35 4.8 12.9 0.00 0.00 0.00 51 1016.6
20260906154604 33 62 3.2 11.3 0.00 0.00 0.00 53 1016.5
20260906154051 33 47 4.8 11.3 0.00 0.00 0.00 52 1016.5
20260906153552 33 33 3.2 9.7 0.00 0.00 0.00 52 1016.5
20260906153104 33 60 3.2 16.1 0.00 0.00 0.00 51 1016.5
20260906152554 33 33 4.8 16.1 0.00 0.00 0.00 51 1016.5
20260906152055 32 4 3.2 11.3 0.00 0.00 0.00 53 1016.5
20260906151601 32 35 4.8 11.3 0.00 0.00 0.00 55 1016.5
20260906151050 32 114 1.6 11.3 0.00 0.00 0.00 54 1016.5
20260906150550 32 38 3.2 11.3 0.00 0.00 0.00 55 1016.5
20260906150104 32 0 4.8 11.3 0.00 0.00 0.00 54 1016.5
20260906145550 31 100 3.2 11.3 0.00 0.00 0.00 55 1016.5
20260906145052 31 41 3.2 11.3 0.00 0.00 0.00 55 1016.4
20260906144623 31 97 4.8 11.3 0.00 0.00 0.00 58 1016.5
20260906144050 31 84 3.2 11.3 0.00 0.00 0.00 58 1016.5
20260906143550 30 38 1.6 9.7 0.00 0.00 0.00 60 1016.3
20260906143103 30 104 1.6 9.7 0.00 0.00 0.00 62 1016.3
20260906142550 30 0 1.6 12.9 0.00 0.00 0.00 63 1016.4
20260906142051 29 89 3.2 12.9 0.00 0.00 0.00 65 1016.5
20260906141613 29 87 3.2 11.3 0.00 0.00 0.00 65 1016.6
20260906141053 28 90 4.8 14.5 0.00 0.00 0.00 65 1016.6
20260906140552 28 91 1.6 14.5 0.00 0.00 0.00 67 1016.6
20260906140104 27 93 0.0 6.4 0.00 0.00 0.00 70 1016.5
20260906135550 27 0 0.0 3.2 0.00 0.00 0.00 73 1016.3
20260906135050 26 66 0.0 1.6 0.00 0.00 0.00 77 1016.2
20260906134607 26 0 0.0 1.6 0.00 0.00 0.00 79 1016.1
20260906134050 25 0 0.0 1.6 0.00 0.00 0.00 81 1016.1
20260906133549 25 0 0.0 3.2 0.00 0.00 0.00 82 1016.2
20260906133055 24 0 0.0 3.2 0.00 0.00 0.00 83 1016.3
20260906132553 23 0 0.0 3.2 0.00 0.00 0.00 84 1016.2
20260906132049 23 0 0.0 1.6 0.00 0.00 0.00 85 1016.2
20260906131601 23 0 0.0 0.0 0.00 0.00 0.00 85 1016.0
20260906131050 23 0 0.0 0.0 0.00 0.00 0.00 86 1016.0
20260906130552 22 0 0.0 0.0 0.00 0.00 0.00 87 1016.0
20260906130106 22 0 0.0 1.6 0.00 0.00 0.00 86 1016.0
20260906125552 22 0 0.0 1.6 0.00 0.00 0.00 87 1016.1
20260906125055 22 0 0.0 1.6 0.00 0.00 0.00 88 1016.0
20260906124559 21 0 0.0 0.0 0.00 0.00 0.00 88 1016.0
20260906124049 21 0 0.0 1.6 0.00 0.00 0.00 88 1015.9
20260906123550 21 0 0.0 1.6 0.00 0.00 0.00 88 1015.9
20260906123108 21 66 0.0 1.6 0.00 0.00 0.00 88 1015.9
20260906122550 21 0 0.0 1.6 0.00 0.00 0.00 88 1015.8
20260906122050 21 0 0.0 0.0 0.00 0.00 0.00 87 1015.7
20260906121606 21 0 0.0 0.0 0.00 0.00 0.00 87 1015.7
20260906121050 21 0 0.0 0.0 0.00 0.00 0.00 87 1015.6
20260906120550 21 0 0.0 1.6 0.00 0.00 0.00 87 1015.6
20260906120106 21 0 0.0 1.6 0.00 0.00 0.00 87 1015.5
20260906115550 21 0 0.0 0.0 0.00 0.00 0.00 88 1015.4
20260906115050 21 0 0.0 0.0 0.00 0.00 0.00 88 1015.3
20260906114558 21 0 0.0 0.0 0.00 0.00 0.00 89 1015.3
20260906114049 21 0 0.0 3.2 0.00 0.00 0.00 89 1015.4
20260906113551 21 0 0.0 3.2 0.00 0.00 0.00 89 1015.3
20260906113104 21 66 1.6 6.4 0.00 0.00 0.00 89 1015.3
20260906112633 20 66 0.0 6.4 0.00 0.00 0.00 89 1015.4
20260906112051 20 45 1.6 6.4 0.00 0.00 0.00 89 1015.3
20260906111658 20 0 1.6 4.8 0.00 0.00 0.00 88 1015.3
20260906111050 20 112 1.6 3.2 0.00 0.00 0.00 88 1015.4
20260906110550 20 112 0.0 3.2 0.00 0.00 0.00 87 1015.2
20260906110103 20 0 0.0 0.0 0.00 0.00 0.00 87 1015.2
20260906105554 21 0 0.0 0.0 0.00 0.00 0.00 87 1015.2
20260906105050 21 0 0.0 0.0 0.00 0.00 0.00 87 1015.1
20260906104624 21 0 0.0 0.0 0.00 0.00 0.00 87 1015.2
20260906104051 21 0 0.0 0.0 0.00 0.00 0.00 87 1015.1
20260906103550 21 0 0.0 0.0 0.00 0.00 0.00 87 1015.1
20260906103110 21 0 0.0 0.0 0.00 0.00 0.00 87 1015.2
20260906102552 21 0 0.0 3.2 0.00 0.00 0.00 87 1015.1
20260906102050 21 0 0.0 3.2 0.00 0.00 0.00 87 1015.1
20260906101553 21 112 1.6 3.2 0.00 0.00 0.00 87 1014.9
20260906101050 21 112 0.0 1.6 0.00 0.00 0.00 86 1014.9
20260906100550 21 0 0.0 0.0 0.00 0.00 0.00 86 1014.9
20260906100105 21 0 0.0 0.0 0.00 0.00 0.00 87 1014.9
20260906095550 21 0 0.0 3.2 0.00 0.00 0.00 87 1014.8
20260906095050 21 0 0.0 3.2 0.00 0.00 0.00 87 1014.8
20260906094639 21 112 0.0 3.2 0.00 0.00 0.00 87 1014.7
20260906094050 21 0 0.0 1.6 0.00 0.00 0.00 86 1014.7
20260906093550 21 112 0.0 1.6 0.00 0.00 0.00 86 1014.7
20260906093104 21 0 0.0 0.0 0.00 0.00 0.00 86 1014.6
20260906092553 21 0 0.0 0.0 0.00 0.00 0.00 85 1014.5
20260906092052 21 0 0.0 0.0 0.00 0.00 0.00 85 1014.6
20260906091611 21 0 0.0 3.2 0.00 0.00 0.00 86 1014.5
20260906091139 21 0 0.0 3.2 0.00 0.00 0.00 86 1014.5
20260906090551 21 112 1.6 3.2 0.00 0.00 0.00 85 1014.5
20260906090100 21 236 0.0 3.2 0.00 0.00 0.00 85 1014.5
20260906085556 21 0 0.0 0.0 0.00 0.00 0.00 84 1014.4
20260906085055 21 0 0.0 0.0 0.00 0.00 0.00 84 1014.5
20260906084606 21 0 0.0 0.0 0.00 0.00 0.00 84 1014.5
20260906084054 21 0 0.0 0.0 0.00 0.00 0.00 84 1014.4
20260906083549 21 0 0.0 0.0 0.00 0.00 0.00 83 1014.4
20260906083054 21 0 0.0 0.0 0.00 0.00 0.00 83 1014.4
20260906082550 22 0 0.0 0.0 0.00 0.00 0.00 83 1014.3
20260906082050 22 0 0.0 0.0 0.00 0.00 0.00 83 1014.4
20260906081603 22 0 0.0 1.6 0.00 0.00 0.00 81 1014.4
20260906081127 22 0 0.0 1.6 0.00 0.00 0.00 81 1014.5
20260906080551 22 0 0.0 1.6 0.00 0.00 0.00 82 1014.7
20260906080124 22 0 0.0 1.6 0.00 0.00 0.00 81 1014.6
20260906075550 22 0 0.0 0.0 0.00 0.00 0.00 80 1014.5
20260906075050 22 0 0.0 0.0 0.00 0.00 0.00 80 1014.5
20260906074558 22 0 0.0 1.6 0.00 0.00 0.00 80 1014.5
20260906074049 22 0 0.0 1.6 0.00 0.00 0.00 80 1014.5
20260906073550 22 0 0.0 0.0 0.00 0.00 0.00 80 1014.5
20260906073104 22 0 0.0 0.0 0.00 0.00 0.00 80 1014.6
20260906072736 22 0 0.0 3.2 0.00 0.00 0.00 80 1014.6
20260906071601 22 351 0.0 3.2 0.00 0.00 0.00 80 1014.7
20260906071052 23 0 0.0 3.2 0.00 0.00 0.00 80 1014.9
20260906070552 23 351 1.6 3.2 0.00 0.00 0.00 80 1014.8
20260906070104 23 0 0.0 3.2 0.00 0.00 0.00 80 1014.8
20260906065550 23 351 1.6 3.2 0.00 0.00 0.00 80 1015.0
20260906065051 23 351 0.0 3.2 0.00 0.00 0.00 79 1015.0
20260906064553 23 0 0.0 0.0 0.00 0.00 0.00 78 1015.0
20260906064050 23 0 0.0 0.0 0.00 0.00 0.00 78 1015.0
20260906063550 23 0 0.0 0.0 0.00 0.00 0.00 77 1015.0
20260906063055 23 0 0.0 0.0 0.00 0.00 0.00 78 1014.9
20260906062551 23 0 0.0 0.0 0.00 0.00 0.00 78 1015.0
20260906062055 23 0 0.0 0.0 0.00 0.00 0.00 79 1014.9
20260906061605 23 0 0.0 0.0 0.00 0.00 0.00 78 1015.0
20260906061050 23 0 0.0 0.0 0.00 0.00 0.00 78 1014.9
20260906060552 23 0 0.0 0.0 0.00 0.00 0.00 77 1014.9
20260906060130 23 0 0.0 0.0 0.00 0.00 0.00 77 1014.9
20260906055553 23 0 0.0 0.0 0.00 0.00 0.00 76 1015.0
20260906055050 23 0 0.0 0.0 0.00 0.00 0.00 76 1015.2
20260906054557 23 0 0.0 0.0 0.00 0.00 0.00 77 1015.2
20260906054051 23 0 0.0 0.0 0.00 0.00 0.00 76 1015.1
20260906053550 23 0 0.0 0.0 0.00 0.00 0.00 76 1015.0
20260906053110 23 0 0.0 1.6 0.00 0.00 0.00 76 1015.0
20260906052554 24 0 0.0 3.2 0.00 0.00 0.00 76 1015.0
20260906052051 24 0 0.0 3.2 0.00 0.00 0.00 76 1014.9
20260906051605 24 0 0.0 3.2 0.00 0.00 0.00 75 1014.8
20260906051055 24 0 0.0 3.2 0.00 0.00 0.00 75 1014.7
20260906050551 24 0 0.0 3.2 0.00 0.00 0.00 74 1014.8
20260906050130 24 0 0.0 1.6 0.00 0.00 0.00 72 1014.8
20260906045550 25 0 0.0 1.6 0.00 0.00 0.00 72 1014.8
20260906045050 25 0 0.0 4.8 0.00 0.00 0.00 72 1014.9
20260906044605 25 0 0.0 4.8 0.00 0.00 0.00 72 1014.8
20260906044053 25 337 1.6 3.2 0.00 0.00 0.00 72 1014.8
20260906043550 25 0 0.0 0.0 0.00 0.00 0.00 71 1015.0
20260906043103 25 0 0.0 0.0 0.00 0.00 0.00 71 1015.0
20260906042551 25 0 0.0 0.0 0.00 0.00 0.00 71 1015.1
20260906042117 25 0 0.0 1.6 0.00 0.00 0.00 71 1015.0
20260906041603 25 0 0.0 3.2 0.00 0.00 0.00 72 1015.0
20260906041125 25 0 0.0 3.2 0.00 0.00 0.00 71 1015.0
20260906040553 25 70 0.0 1.6 0.00 0.00 0.00 70 1015.0
20260906040137 25 0 0.0 3.2 0.00 0.00 0.00 71 1014.9
20260906035619 25 0 0.0 3.2 0.00 0.00 0.00 71 1014.9
20260906035052 25 0 0.0 1.6 0.00 0.00 0.00 72 1015.0
20260906034607 25 0 0.0 3.2 0.00 0.00 0.00 71 1015.0
20260906034049 25 70 0.0 3.2 0.00 0.00 0.00 71 1014.8
20260906033550 25 70 0.0 3.2 0.00 0.00 0.00 71 1014.7
20260906033104 25 0 0.0 3.2 0.00 0.00 0.00 71 1014.7
20260906032551 25 70 0.0 3.2 0.00 0.00 0.00 71 1014.8
20260906032050 25 70 0.0 3.2 0.00 0.00 0.00 71 1014.9
20260906031702 25 0 0.0 1.6 0.00 0.00 0.00 70 1014.8
20260906030550 25 0 0.0 3.2 0.00 0.00 0.00 68 1014.7
20260906030059 26 0 0.0 4.8 0.00 0.00 0.00 68 1014.7
20260906025551 26 70 1.6 4.8 0.00 0.00 0.00 68 1014.6
20260906025051 26 70 1.6 4.8 0.00 0.00 0.00 67 1014.7
20260906024558 26 70 1.6 3.2 0.00 0.00 0.00 66 1014.7
20260906024050 26 70 1.6 4.8 0.00 0.00 0.00 66 1014.7
20260906023551 26 70 1.6 4.8 0.00 0.00 0.00 65 1014.5
20260906023104 26 35 0.0 1.6 0.00 0.00 0.00 65 1014.3
20260906022552 27 0 0.0 0.0 0.00 0.00 0.00 63 1014.3
20260906022053 27 0 0.0 1.6 0.00 0.00 0.00 64 1014.3
20260906021626 27 0 0.0 4.8 0.00 0.00 0.00 64 1014.3
20260906021052 27 0 1.6 4.8 0.00 0.00 0.00 63 1014.4
20260906020550 27 14 1.6 4.8 0.00 0.00 0.00 63 1014.2
20260906020106 27 110 1.6 4.8 0.00 0.00 0.00 63 1014.0
20260906015550 27 110 0.0 9.7 0.00 0.00 0.00 63 1013.9
20260906015051 27 110 1.6 11.3 0.00 0.00 0.00 63 1013.8
20260906014608 27 325 6.4 11.3 0.00 0.00 0.00 63 1013.9
20260906014049 27 8 4.8 9.7 0.00 0.00 0.00 62 1014.0
20260906013551 27 330 3.2 8.0 0.00 0.00 0.00 62 1013.9
20260906013102 27 58 0.0 3.2 0.00 0.00 0.00 61 1013.8
20260906012555 27 89 0.0 3.2 0.00 0.00 0.00 60 1013.7
20260906012049 28 0 0.0 3.2 0.00 0.00 0.00 60 1013.6
20260906011604 28 89 0.0 1.6 0.00 0.00 0.00 58 1013.5
20260906011054 28 0 0.0 0.0 0.00 0.00 0.00 57 1013.5
20260906010554 28 0 0.0 6.4 0.00 0.00 0.00 57 1013.3
20260906010109 28 0 0.0 6.4 0.00 0.00 0.00 57 1013.2
20260906005550 28 88 3.2 6.4 0.00 0.00 0.00 57 1013.4
20260906005052 28 79 1.6 6.4 0.00 0.00 0.00 56 1013.3
20260906004604 29 0 0.0 6.4 0.00 0.00 0.00 55 1013.3
20260906004050 29 70 1.6 6.4 0.00 0.00 0.00 55 1013.5
20260906003551 29 0 0.0 1.6 0.00 0.00 0.00 55 1013.5
20260906003105 29 0 0.0 4.8 0.00 0.00 0.00 55 1013.4
20260906002549 30 0 0.0 4.8 0.00 0.00 0.00 55 1013.5
20260906002052 30 111 1.6 4.8 0.00 0.00 0.00 54 1013.6
20260906001615 30 0 0.0 1.6 0.00 0.00 0.00 54 1013.5
20260906001059 30 0 0.0 3.2 0.00 0.00 0.00 54 1013.6
20260906000554 30 0 0.0 3.2 0.00 0.00 0.00 53 1013.7
20260905235550 30 119 0.0 6.4 0.00 0.00 0.00 53 1013.7
20260905235058 30 91 1.6 6.4 0.00 0.00 0.00 52 1013.6
20260905234558 30 135 0.0 3.2 0.00 0.00 0.00 52 1013.4
20260905234050 30 0 0.0 3.2 0.00 0.00 0.00 53 1013.4
20260905233550 30 162 0.0 4.8 0.00 0.00 0.00 52 1013.5
20260905233059 30 162 0.0 9.7 0.00 0.00 0.00 52 1013.4
20260905232550 30 0 1.6 9.7 0.00 0.00 0.00 52 1013.5
20260905232051 31 93 3.2 9.7 0.00 0.00 0.00 51 1013.6
20260905231608 31 106 0.0 6.4 0.00 0.00 0.00 52 1013.6
20260905231054 31 106 1.6 11.3 0.00 0.00 0.00 51 1013.5
20260905230550 31 108 3.2 12.9 0.00 0.00 0.00 50 1013.4
20260905230118 31 105 4.8 19.3 0.00 0.00 0.00 50 1013.4
20260905225551 31 87 8.0 19.3 0.00 0.00 0.00 50 1013.6
20260905225050 31 76 6.4 12.9 0.00 0.00 0.00 49 1013.5
20260905224601 31 58 4.8 17.7 0.00 0.00 0.00 50 1013.5
20260905224057 32 37 8.0 19.3 0.00 0.00 0.00 49 1013.4
20260905223549 32 90 11.3 22.5 0.00 0.00 0.00 47 1013.2
20260905223055 33 85 11.3 22.5 0.00 0.00 0.00 45 1013.2
20260905222551 34 86 11.3 25.7 0.00 0.00 0.00 43 1013.2
20260905222050 35 72 12.9 25.7 0.00 0.00 0.00 40 1013.2
20260905221603 36 95 4.8 12.9 0.00 0.00 0.00 37 1013.1
20260905221051 36 27 4.8 14.5 0.00 0.00 0.00 35 1013.1
20260905220550 37 324 6.4 14.5 0.00 0.00 0.00 33 1013.1
20260905220105 37 333 6.4 17.7 0.00 0.00 0.00 32 1013.1
20260905215551 38 360 4.8 17.7 0.00 0.00 0.00 32 1013.1
20260905215126 38 344 3.2 6.4 0.00 0.00 0.00 32 1013.0
20260905214558 37 0 0.0 9.7 0.00 0.00 0.00 32 1013.0
20260905214052 37 307 1.6 11.3 0.00 0.00 0.00 31 1013.0
20260905213550 37 80 1.6 11.3 0.00 0.00 0.00 30 1013.0
20260905213110 37 5 3.2 9.7 0.00 0.00 0.00 32 1013.1
20260905212551 37 332 1.6 6.4 0.00 0.00 0.00 32 1013.1
20260905212051 37 207 1.6 9.7 0.00 0.00 0.00 31 1013.2
20260905211609 37 53 1.6 9.7 0.00 0.00 0.00 31 1013.2
20260905211051 38 68 4.8 9.7 0.00 0.00 0.00 30 1013.2
20260905210551 38 93 3.2 8.0 0.00 0.00 0.00 31 1013.3
20260905210109 38 111 3.2 9.7 0.00 0.00 0.00 31 1013.4
20260905205549 38 90 3.2 9.7 0.00 0.00 0.00 30 1013.4
20260905205051 38 149 1.6 4.8 0.00 0.00 0.00 29 1013.5
20260905204605 38 169 0.0 6.4 0.00 0.00 0.00 30 1013.6
20260905204053 38 0 1.6 6.4 0.00 0.00 0.00 31 1013.7
20260905203550 37 121 1.6 6.4 0.00 0.00 0.00 30 1013.7
20260905203107 38 312 1.6 11.3 0.00 0.00 0.00 30 1013.9
20260905202549 38 190 3.2 11.3 0.00 0.00 0.00 31 1014.0
20260905202051 37 227 1.6 9.7 0.00 0.00 0.00 31 1013.9
20260905201610 37 0 3.2 12.9 0.00 0.00 0.00 31 1014.0
20260905201050 38 160 1.6 12.9 0.00 0.00 0.00 30 1014.1
20260905200551 38 216 3.2 12.9 0.00 0.00 0.00 30 1014.2
20260905200147 38 149 1.6 9.7 0.00 0.00 0.00 34 1014.3
20260905195617 37 177 1.6 16.1 0.00 0.00 0.00 32 1014.3
20260905195050 37 118 4.8 16.1 0.00 0.00 0.00 32 1014.5
20260905194612 38 83 4.8 12.9 0.00 0.00 0.00 31 1014.5
20260905194050 38 125 3.2 9.7 0.00 0.00 0.00 31 1014.6
20260905193549 37 0 1.6 6.4 0.00 0.00 0.00 31 1014.5
20260905193101 38 95 1.6 9.7 0.00 0.00 0.00 30 1014.6
20260905192550 37 116 3.2 9.7 0.00 0.00 0.00 31 1014.7
20260905192051 37 176 1.6 9.7 0.00 0.00 0.00 32 1014.7
20260905191605 37 279 1.6 11.3 0.00 0.00 0.00 35 1014.7
20260905191050 37 35 1.6 11.3 0.00 0.00 0.00 31 1015.0
20260905190550 37 131 4.8 11.3 0.00 0.00 0.00 30 1015.1
20260905185551 36 2 1.6 6.4 0.00 0.00 0.00 35 1015.1
20260905185050 36 0 0.0 9.7 0.00 0.00 0.00 37 1015.2
20260905184610 35 353 3.2 9.7 0.00 0.00 0.00 37 1015.2
20260905184051 35 47 0.0 9.7 0.00 0.00 0.00 38 1015.4
20260905183552 36 92 4.8 9.7 0.00 0.00 0.00 36 1015.4
20260905183055 37 87 4.8 9.7 0.00 0.00 0.00 36 1015.6
20260905182550 36 99 0.0 8.0 0.00 0.00 0.00 37 1015.5
20260905182051 36 328 3.2 8.0 0.00 0.00 0.00 38 1015.7
20260905181601 36 322 1.6 8.0 0.00 0.00 0.00 36 1015.9
20260905181053 36 294 3.2 11.3 0.00 0.00 0.00 37 1015.9
20260905180550 36 5 4.8 11.3 0.00 0.00 0.00 39 1016.0
20260905175549 36 48 6.4 16.1 0.00 0.00 0.00 38 1016.0
20260905175051 36 48 6.4 11.3 0.00 0.00 0.00 40 1016.0
20260905174601 36 32 3.2 11.3 0.00 0.00 0.00 42 1016.1
20260905174053 36 4 3.2 9.7 0.00 0.00 0.00 41 1016.1
20260905173552 36 89 1.6 8.0 0.00 0.00 0.00 39 1016.1
20260905173105 36 189 1.6 12.9 0.00 0.00 0.00 40 1016.2
20260905172550 35 302 4.8 12.9 0.00 0.00 0.00 42 1016.2
20260905172051 35 89 1.6 8.0 0.00 0.00 0.00 43 1016.3
20260905171607 35 0 3.2 9.7 0.00 0.00 0.00 42 1016.4
20260905171051 35 284 4.8 9.7 0.00 0.00 0.00 44 1016.4
20260905170551 35 1 3.2 11.3 0.00 0.00 0.00 44 1016.5
20260905170101 35 69 4.8 11.3 0.00 0.00 0.00 42 1016.6
20260905165550 34 0 0.0 11.3 0.00 0.00 0.00 45 1016.7
20260905165052 35 228 4.8 14.5 0.00 0.00 0.00 45 1016.8
20260905164606 35 247 4.8 14.5 0.00 0.00 0.00 46 1016.8
20260905164049 35 21 4.8 14.5 0.00 0.00 0.00 45 1016.8
20260905163550 35 355 4.8 12.9 0.00 0.00 0.00 43 1016.7
20260905163109 34 316 3.2 12.9 0.00 0.00 0.00 47 1016.9
20260905162552 34 337 3.2 12.9 0.00 0.00 0.00 49 1016.8
20260905162050 34 56 3.2 12.9 0.00 0.00 0.00 48 1016.9
20260905161615 33 54 3.2 12.9 0.00 0.00 0.00 51 1016.8
20260905161050 33 0 1.6 9.7 0.00 0.00 0.00 51 1016.9
20260905160551 33 9 4.8 9.7 0.00 0.00 0.00 50 1017.0
20260905160101 33 319 1.6 11.3 0.00 0.00 0.00 51 1017.1